Météo par heure à Alicun

Ce jour, 24 Octobre, Samedi

Heure Température Précipitation Vent Pression Humidité
00:00 +10°C° 0 mm 0 m/s 702 mmHg 80%
01:00 +10°C° 0 mm 0 m/s 702 mmHg 82%
02:00 +9°C° 0 mm 0 m/s 701 mmHg 83%
03:00 +9°C° 0 mm 0 m/s 701 mmHg 85%
04:00 +9°C° 0 mm 0 m/s 701 mmHg 85%
05:00 +8°C° 0 mm 0 m/s 701 mmHg 86%
06:00 +8°C° 0 mm 0 m/s 701 mmHg 86%
07:00 +10°C° 0 mm 0 m/s 702 mmHg 78%
08:00 +12°C° 0 mm 0 m/s 702 mmHg 70%
09:00 +13°C° 0 mm 0 m/s 703 mmHg 62%
10:00 +16°C° 0 mm 1 m/s 703 mmHg 55%
11:00 +18°C° 0 mm 1 m/s 703 mmHg 47%
12:00 +18°C° 0 mm 2 m/s 702 mmHg 40%
13:00 +19°C° 0 mm 2 m/s 702 mmHg 38%
14:00 +19°C° 0 mm 3 m/s 702 mmHg 36%
15:00 +20°C° 0 mm 4 m/s 702 mmHg 35%
16:00 +18°C° 0 mm 3 m/s 701 mmHg 43%
17:00 +17°C° 0 mm 3 m/s 701 mmHg 51%
18:00 +15°C° 0 mm 2 m/s 701 mmHg 59%
19:00 +14°C° 0 mm 1 m/s 701 mmHg 63%
20:00 +14°C° 0 mm 1 m/s 701 mmHg 67%
21:00 +13°C° 0 mm 1 m/s 701 mmHg 72%
22:00 +12°C° 0 mm 1 m/s 700 mmHg 72%
23:00 +12°C° 0 mm 1 m/s 700 mmHg 72%

Demain, 25 Octobre, Dimanche

Heure Température Précipitation Vent Pression Humidité
00:00 +12°C° 0 mm 1 m/s 700 mmHg 73%
01:00 +11°C° 0 mm 1 m/s 699 mmHg 74%
02:00 +11°C° 0 mm 1 m/s 699 mmHg 75%
03:00 +10°C° 0 mm 1 m/s 699 mmHg 76%
04:00 +10°C° 0 mm 1 m/s 698 mmHg 77%
05:00 +10°C° 0 mm 1 m/s 698 mmHg 78%
06:00 +9°C° 0 mm 1 m/s 698 mmHg 79%
07:00 +11°C° 0 mm 1 m/s 699 mmHg 71%
08:00 +13°C° 0 mm 1 m/s 699 mmHg 64%
09:00 +14°C° 0 mm 1 m/s 699 mmHg 57%
10:00 +16°C° 0 mm 2 m/s 699 mmHg 49%
11:00 +18°C° 0 mm 3 m/s 699 mmHg 42%
12:00 +19°C° 0 mm 4 m/s 699 mmHg 34%
13:00 +19°C° 0 mm 4 m/s 699 mmHg 35%
14:00 +19°C° 0 mm 5 m/s 698 mmHg 36%
15:00 +19°C° 0 mm 5 m/s 698 mmHg 36%
16:00 +17°C° 0 mm 5 m/s 697 mmHg 46%
17:00 +15°C° 0 mm 4 m/s 697 mmHg 55%
18:00 +13°C° 0 mm 3 m/s 696 mmHg 64%
19:00 +13°C° 0 mm 3 m/s 696 mmHg 68%
20:00 +12°C° 0 mm 3 m/s 696 mmHg 72%
21:00 +13°C° 0 mm 2 m/s 696 mmHg 76%
22:00 +12°C° 0.1 mm 3 m/s 696 mmHg 77%
23:00 +13°C° 0.1 mm 3 m/s 696 mmHg 79%

Après-demain, 26 Octobre, Lundi

Heure Température Précipitation Vent Pression Humidité
00:00 +13°C° 0.1 mm 3 m/s 695 mmHg 80%
01:00 +13°C° 0.4 mm 4 m/s 695 mmHg 83%
02:00 +13°C° 0.4 mm 4 m/s 695 mmHg 86%
03:00 +12°C° 0.4 mm 5 m/s 695 mmHg 89%
04:00 +12°C° 0.3 mm 5 m/s 695 mmHg 87%
05:00 +11°C° 0.3 mm 4 m/s 696 mmHg 85%
06:00 +10°C° 0.3 mm 4 m/s 696 mmHg 82%
07:00 +11°C° 0 mm 4 m/s 696 mmHg 75%
08:00 +11°C° 0 mm 4 m/s 696 mmHg 68%
09:00 +11°C° 0 mm 4 m/s 697 mmHg 61%
10:00 +12°C° 0 mm 4 m/s 697 mmHg 55%
11:00 +12°C° 0 mm 5 m/s 697 mmHg 49%
12:00 +13°C° 0 mm 5 m/s 697 mmHg 43%
13:00 +13°C° 0 mm 5 m/s 697 mmHg 42%
14:00 +13°C° 0 mm 5 m/s 697 mmHg 40%
15:00 +13°C° 0 mm 5 m/s 697 mmHg 39%
16:00 +12°C° 0 mm 4 m/s 697 mmHg 43%
17:00 +11°C° 0 mm 3 m/s 697 mmHg 46%
18:00 +10°C° 0 mm 2 m/s 698 mmHg 50%
19:00 +10°C° 0 mm 2 m/s 698 mmHg 53%
20:00 +9°C° 0 mm 2 m/s 698 mmHg 55%
21:00 +10°C° 0 mm 1 m/s 699 mmHg 57%
22:00 +9°C° 0 mm 1 m/s 699 mmHg 60%
23:00 +9°C° 0 mm 1 m/s 699 mmHg 62%

, 27 Octobre, Mardi

Heure Température Précipitation Vent Pression Humidité
00:00 +8°C° 0 mm 1 m/s 698 mmHg 64%
01:00 +8°C° 0 mm 1 m/s 698 mmHg 65%
02:00 +7°C° 0 mm 1 m/s 698 mmHg 66%
03:00 +7°C° 0 mm 1 m/s 697 mmHg 67%
04:00 +7°C° 0 mm 1 m/s 697 mmHg 68%
05:00 +6°C° 0 mm 1 m/s 697 mmHg 69%
06:00 +6°C° 0 mm 1 m/s 697 mmHg 69%
07:00 +8°C° 0 mm 1 m/s 698 mmHg 63%
08:00 +9°C° 0 mm 1 m/s 698 mmHg 56%
09:00 +11°C° 0 mm 1 m/s 699 mmHg 49%
10:00 +12°C° 0 mm 1 m/s 699 mmHg 44%
11:00 +13°C° 0 mm 2 m/s 699 mmHg 39%
12:00 +15°C° 0 mm 2 m/s 699 mmHg 34%
13:00 +15°C° 0 mm 2 m/s 699 mmHg 33%
14:00 +16°C° 0 mm 2 m/s 698 mmHg 32%
15:00 +16°C° 0 mm 3 m/s 698 mmHg 31%
16:00 +15°C° 0 mm 2 m/s 698 mmHg 36%
17:00 +14°C° 0 mm 2 m/s 698 mmHg 41%
18:00 +12°C° 0 mm 1 m/s 698 mmHg 46%
19:00 +12°C° 0 mm 1 m/s 698 mmHg 48%
20:00 +11°C° 0 mm 1 m/s 698 mmHg 50%
21:00 +10°C° 0 mm 0 m/s 698 mmHg 53%
22:00 +10°C° 0 mm 0 m/s 698 mmHg 55%
23:00 +9°C° 0 mm 0 m/s 698 mmHg 56%

27 Octobre, Mardi

Heure Température Précipitation Vent Pression Humidité
00:00 +8°C° 0 mm 1 m/s 698 mmHg 64%
01:00 +8°C° 0 mm 1 m/s 698 mmHg 65%
02:00 +7°C° 0 mm 1 m/s 698 mmHg 66%
03:00 +7°C° 0 mm 1 m/s 697 mmHg 67%
04:00 +7°C° 0 mm 1 m/s 697 mmHg 68%
05:00 +6°C° 0 mm 1 m/s 697 mmHg 69%
06:00 +6°C° 0 mm 1 m/s 697 mmHg 69%
07:00 +8°C° 0 mm 1 m/s 698 mmHg 63%
08:00 +9°C° 0 mm 1 m/s 698 mmHg 56%
09:00 +11°C° 0 mm 1 m/s 699 mmHg 49%
10:00 +12°C° 0 mm 1 m/s 699 mmHg 44%
11:00 +13°C° 0 mm 2 m/s 699 mmHg 39%
12:00 +15°C° 0 mm 2 m/s 699 mmHg 34%
13:00 +15°C° 0 mm 2 m/s 699 mmHg 33%
14:00 +16°C° 0 mm 2 m/s 698 mmHg 32%
15:00 +16°C° 0 mm 3 m/s 698 mmHg 31%
16:00 +15°C° 0 mm 2 m/s 698 mmHg 36%
17:00 +14°C° 0 mm 2 m/s 698 mmHg 41%
18:00 +12°C° 0 mm 1 m/s 698 mmHg 46%
19:00 +12°C° 0 mm 1 m/s 698 mmHg 48%
20:00 +11°C° 0 mm 1 m/s 698 mmHg 50%
21:00 +10°C° 0 mm 0 m/s 698 mmHg 53%
22:00 +10°C° 0 mm 0 m/s 698 mmHg 55%
23:00 +9°C° 0 mm 0 m/s 698 mmHg 56%

28 Octobre, Mercredi

Heure Température Précipitation Vent Pression Humidité
00:00 +9°C° 0 mm 0 m/s 698 mmHg 58%
01:00 +9°C° 0 mm 0 m/s 697 mmHg 60%
02:00 +9°C° 0 mm 0 m/s 697 mmHg 61%
03:00 +8°C° 0 mm 0 m/s 697 mmHg 63%
04:00 +8°C° 0 mm 0 m/s 697 mmHg 64%
05:00 +8°C° 0 mm 0 m/s 697 mmHg 65%
06:00 +8°C° 0 mm 0 m/s 697 mmHg 66%
07:00 +10°C° 0 mm 0 m/s 698 mmHg 60%
08:00 +12°C° 0 mm 0 m/s 699 mmHg 54%
09:00 +14°C° 0 mm 0 m/s 699 mmHg 48%
10:00 +18°C° 0 mm 1 m/s 699 mmHg 47%
11:00 +19°C° 0 mm 1 m/s 700 mmHg 45%
12:00 +20°C° 0 mm 1 m/s 700 mmHg 43%
13:00 +20°C° 0 mm 2 m/s 700 mmHg 43%
14:00 +20°C° 0 mm 2 m/s 699 mmHg 42%
15:00 +21°C° 0 mm 2 m/s 699 mmHg 41%
16:00 +19°C° 0 mm 2 m/s 699 mmHg 48%
17:00 +18°C° 0 mm 1 m/s 699 mmHg 54%
18:00 +16°C° 0 mm 1 m/s 699 mmHg 61%
19:00 +15°C° 0 mm 1 m/s 699 mmHg 62%
20:00 +14°C° 0 mm 0 m/s 699 mmHg 64%
21:00 +13°C° 0 mm 0 m/s 699 mmHg 66%
22:00 +13°C° 0 mm 0 m/s 699 mmHg 68%
23:00 +12°C° 0 mm 0 m/s 699 mmHg 69%

29 Octobre, Jeudi

Heure Température Précipitation Vent Pression Humidité
00:00 +12°C° 0 mm 0 m/s 699 mmHg 71%
01:00 +12°C° 0 mm 0 m/s 699 mmHg 73%
02:00 +11°C° 0 mm 0 m/s 699 mmHg 75%
03:00 +11°C° 0 mm 0 m/s 698 mmHg 77%
04:00 +11°C° 0 mm 0 m/s 698 mmHg 78%
05:00 +11°C° 0 mm 0 m/s 699 mmHg 78%
06:00 +11°C° 0 mm 0 m/s 699 mmHg 79%
07:00 +14°C° 0 mm 1 m/s 699 mmHg 70%
08:00 +16°C° 0 mm 1 m/s 700 mmHg 61%
09:00 +19°C° 0 mm 1 m/s 701 mmHg 52%
10:00 +20°C° 0 mm 1 m/s 701 mmHg 48%
11:00 +22°C° 0 mm 1 m/s 701 mmHg 44%
12:00 +23°C° 0 mm 1 m/s 701 mmHg 40%
13:00 +23°C° 0 mm 1 m/s 701 mmHg 38%
14:00 +23°C° 0 mm 1 m/s 701 mmHg 37%
15:00 +24°C° 0 mm 1 m/s 701 mmHg 36%
16:00 +22°C° 0 mm 1 m/s 701 mmHg 42%
17:00 +20°C° 0 mm 1 m/s 700 mmHg 47%
18:00 +18°C° 0 mm 1 m/s 700 mmHg 53%
19:00 +18°C° 0 mm 1 m/s 700 mmHg 54%
20:00 +16°C° 0 mm 1 m/s 701 mmHg 56%
21:00 +16°C° 0 mm 1 m/s 701 mmHg 58%
22:00 +15°C° 0 mm 1 m/s 701 mmHg 59%
23:00 +15°C° 0 mm 1 m/s 700 mmHg 60%
Voir plus

Nous avons besoin de votre consentement

Meteoprog et ses fournisseurs de services peuvent stocker et accéder à des données personnelles telles que des cookies, des identifiants d'appareils ou d'autres technologies similaires sur votre appareil et traiter ces données pour personnaliser le contenu et les publicités, ainsi que pour fournir des fonctionnalités de médias sociaux et analyser le trafic.

  • Stocker et/ou accéder à des informations sur votre appareil

    Des cookies, des identifiants d'appareils ou d'autres informations peuvent être stockés ou accessibles sur votre appareil aux fins indiquées ci-dessus.

  • Annonces et contenus personnalisés, mesure des annonces et des contenus, connaissance de l'audience et développement de produits

    Les annonces et le contenu peuvent être personnalisés en fonction d'un profil. D'autres données peuvent être ajoutées pour mieux personnaliser les annonces et le contenu. Les performances des publicités et du contenu peuvent être mesurées. Il est possible d'obtenir des informations sur le public qui a vu les publicités et le contenu. Ces données peuvent être utilisées pour développer ou améliorer l'expérience de l'utilisateur, les systèmes et les logiciels.

En cliquant sur "J'accepte", vous autorisez l'utilisation de cookies, des identifiants d'appareils, des balises web ou d'autres technologies similaires. Vos paramètres peuvent être modifiés dans le navigateur de votre appareil.

Dans certains cas, des intérêts légitimes peuvent être invoqués plutôt qu'un consentement. Vous pouvez en savoir plus à ce sujet dans notre Politique de confidentialité et de cookies.